{"data":{"norad_id":69500,"intl_designator":"2026-131Y","name":"STARLINK-37835","alt_names":[],"object_type":"PAYLOAD","status":"ACTIVE","operator":null,"country":"US","launch_date":"2026-06-11","launch_site_code":"AFWTR","launch_vehicle":null,"mission":null,"orbit_class":"UNKNOWN","rcs_meters":null,"size_class":null,"mass_kg":null,"dimensions":null,"purposes":["comms"],"wikipedia_slug":null,"has_3d_model":false,"image_url":null,"decayed_at":null,"tle_current":{"epoch":"2026-09-20T01:21:12.647232Z","epoch_age_seconds":63821,"freshness":"FRESH","line1":"1 69500U 26131Y   26263.05639638  .00010523  00000+0  32772-3 0  9996","line2":"2 69500  97.2836 283.9905 0001656  92.8048 267.3384 15.33455315 15578","mean_motion":15.33455315,"eccentricity":0.0001656,"inclination_deg":97.2836,"raan_deg":283.9905,"arg_perigee_deg":92.8048,"mean_anomaly_deg":267.3384,"bstar":0.00032772,"rev_number":1557,"period_min":93.905572983716,"perigee_km":464.37917611276,"apogee_km":466.64579282202,"semimajor_km":6843.6494844674,"source":"CELESTRAK","updated_at":"2026-09-20T09:00:44.209938Z"}}}